Location: Doverdale
(52.2833°N, 2.2000°W)
Time: 14:45:55
(UTC+00:00)

CZ-2D R/B - Pass Details

Date: 29 October 2020
Orbit: 522 x 537 km, 97.4° (Epoch: 28 November)

Event Time Altitude Azimuth Distance (km) Brightness Sun altitude
Rises 17:23:03 0° 134° (SE) 2,652 6.5 -6.4°
Reaches altitude 10° 17:25:23 10° 121° (ESE) 1,766 5.5 -6.8°
Maximum altitude 17:28:34 26° 65° (ENE) 1,073 4.2 -7.3°
Drops below altitude 10° 17:31:45 10° 8° (N) 1,774 5.7 -7.7°
Sets 17:34:05 0° 356° (N) 2,667 6.7 -8.1°
